User: anonymous   Login
Location: Unspecified
(0.0000°N, 0.0000°E)
Time: 09:16:41
(UTC+00:00)
Language:

COSMOS 2409 - Orbit

View from above orbital plane
View from above orbital plane
View from above satellite
View from above satellite

Ground track
Ground track

The orbit data is extracted from the following two-line orbital elements,

1 28380U 04028A   19287.78329438  .00000046  00000-0  31463-4 0  9997
2 28380  82.9572  79.4235 0038128 227.2285 132.5644 13.76069760764845
Epoch (UTC): 14 October 2019 18:47:56
Eccentricity: 0.0038128
inclination: 82.9572°
perigee height: 950 km
apogee height: 1006 km
right ascension of ascending node: 79.4235°
argument of perigee: 227.2285°
revolutions per day: 13.76069760
mean anomaly at epoch: 132.5644°
orbit number at epoch: 76484

The dashed part of the orbit path shows where the satellite is in the earth's shadow,  

DLR